Location: Bailey Volunteer Fire Department
(33.4359°N, 96.1680°W)
Time: 16:36:26
(UTC+00:00)

SMAP - Pass Details

Date: 13 December 2025
Orbit: 681 x 683 km, 98.1° (Epoch: 14 January)

Event Time Altitude Azimuth Distance (km) Brightness Sun altitude
Rises 12:43:52 0° 10° (N) 3,047 6.3 -7.7°
Reaches altitude 10° 12:46:06 10° 9° (N) 2,128 5.5 -7.3°
Maximum altitude 12:50:46 79° 283° (WNW) 698 3.0 -6.4°
Drops below altitude 10° 12:55:23 10° 198° (SSW) 2,114 5.7 -5.5°
Sets 12:57:36 0° 197° (SSW) 3,025 6.5 -5.1°
